When you browse on this site, cookies collect data to enhance your experience and personalize the content and advertising you see.
Visit our Privacy Policy to learn more. By continuing to use the site, you agree to this use of cookies and data.
  • In Österreich
  • Länderverzeichnis
  • Für 7 Tage
  • Wassertemperatur
  • Satellitenkarten
  • Wetterkarte
  • News
  • Widgets
  • user-avatar
    Anmelden

    Stündliche Wetter Düsseldorf

    Heute, 21 Januar, Montag

    Zeit Temperatur Niederschläge Wind Luftdruck Luftfeuchtigkeit
    00:00 -1°C° 0 mm 0 m/S 764 mmHg 55%
    01:00 -2°C° 0 mm 0 m/S 764 mmHg 55%
    02:00 -2°C° 0 mm 0 m/S 764 mmHg 55%
    03:00 -2°C° 0 mm 0 m/S 764 mmHg 55%
    04:00 -2°C° 0 mm 0 m/S 764 mmHg 56%
    05:00 -2°C° 0 mm 0 m/S 764 mmHg 56%
    06:00 -2°C° 0 mm 0 m/S 764 mmHg 56%
    07:00 -2°C° 0 mm 0 m/S 764 mmHg 55%
    08:00 -1°C° 0 mm 0 m/S 764 mmHg 54%
    09:00 0°C° 0 mm 1 m/S 764 mmHg 52%
    10:00 +1°C° 0 mm 1 m/S 764 mmHg 49%
    11:00 +2°C° 0 mm 1 m/S 764 mmHg 46%
    12:00 +2°C° 0 mm 1 m/S 763 mmHg 43%
    13:00 +2°C° 0 mm 1 m/S 763 mmHg 44%
    14:00 +2°C° 0 mm 1 m/S 763 mmHg 45%
    15:00 +2°C° 0 mm 1 m/S 762 mmHg 46%
    16:00 +1°C° 0 mm 1 m/S 762 mmHg 47%
    17:00 0°C° 0 mm 1 m/S 762 mmHg 49%
    18:00 0°C° 0 mm 1 m/S 762 mmHg 51%
    19:00 0°C° 0 mm 1 m/S 761 mmHg 51%
    20:00 0°C° 0 mm 1 m/S 761 mmHg 51%
    21:00 -2°C° 0 mm 2 m/S 760 mmHg 52%
    22:00 -2°C° 0 mm 2 m/S 760 mmHg 52%
    23:00 -2°C° 0 mm 2 m/S 759 mmHg 51%

    Morgen, 22 Januar, Dienstag

    Zeit Temperatur Niederschläge Wind Luftdruck Luftfeuchtigkeit
    00:00 -2°C° 0 mm 2 m/S 759 mmHg 51%
    01:00 -2°C° 0 mm 2 m/S 758 mmHg 51%
    02:00 -2°C° 0 mm 3 m/S 757 mmHg 50%
    03:00 -2°C° 0 mm 3 m/S 756 mmHg 50%
    04:00 -2°C° 0 mm 3 m/S 755 mmHg 49%
    05:00 -2°C° 0 mm 3 m/S 754 mmHg 48%
    06:00 -3°C° 0 mm 4 m/S 753 mmHg 48%
    07:00 -2°C° 0 mm 4 m/S 752 mmHg 46%
    08:00 -2°C° 0 mm 5 m/S 752 mmHg 44%
    09:00 -1°C° 0 mm 5 m/S 751 mmHg 42%
    10:00 -1°C° 0.2 mm 5 m/S 750 mmHg 46%
    11:00 -1°C° 0.2 mm 4 m/S 750 mmHg 49%
    12:00 -1°C° 0.2 mm 4 m/S 749 mmHg 53%
    13:00 -1°C° 0.3 mm 4 m/S 748 mmHg 61%
    14:00 -1°C° 0.3 mm 4 m/S 748 mmHg 69%
    15:00 -2°C° 0.3 mm 4 m/S 747 mmHg 77%
    16:00 -1°C° 0.2 mm 3 m/S 747 mmHg 79%
    17:00 -1°C° 0.2 mm 3 m/S 747 mmHg 82%
    18:00 -1°C° 0.2 mm 3 m/S 747 mmHg 84%
    19:00 -1°C° 0.3 mm 3 m/S 747 mmHg 87%
    20:00 -1°C° 0.3 mm 2 m/S 747 mmHg 89%
    21:00 -1°C° 0.3 mm 2 m/S 747 mmHg 92%
    22:00 -1°C° 0.4 mm 2 m/S 746 mmHg 93%
    23:00 -1°C° 0.4 mm 2 m/S 746 mmHg 94%

    übermorgen, 23 Januar, Mittwoch

    Zeit Temperatur Niederschläge Wind Luftdruck Luftfeuchtigkeit
    00:00 +1°C° 0.4 mm 1 m/S 746 mmHg 95%
    01:00 +1°C° 0.2 mm 1 m/S 746 mmHg 95%
    02:00 +1°C° 0.2 mm 1 m/S 746 mmHg 96%
    03:00 0°C° 0.2 mm 1 m/S 746 mmHg 96%
    04:00 0°C° 0 mm 1 m/S 746 mmHg 96%
    05:00 0°C° 0 mm 1 m/S 746 mmHg 96%
    06:00 0°C° 0 mm 1 m/S 746 mmHg 95%
    07:00 0°C° 0 mm 1 m/S 747 mmHg 94%
    08:00 0°C° 0 mm 1 m/S 747 mmHg 93%
    09:00 0°C° 0 mm 1 m/S 747 mmHg 92%
    10:00 0°C° 0 mm 0 m/S 748 mmHg 90%
    11:00 0°C° 0 mm 0 m/S 748 mmHg 89%
    12:00 +1°C° 0 mm 0 m/S 748 mmHg 87%
    13:00 +1°C° 0 mm 0 m/S 748 mmHg 88%
    14:00 +1°C° 0 mm 0 m/S 749 mmHg 89%
    15:00 +1°C° 0 mm 0 m/S 749 mmHg 90%
    16:00 0°C° 0 mm 0 m/S 750 mmHg 91%
    17:00 -1°C° 0 mm 0 m/S 750 mmHg 92%
    18:00 -1°C° 0 mm 0 m/S 751 mmHg 93%
    19:00 -1°C° 0 mm 0 m/S 752 mmHg 93%
    20:00 -2°C° 0 mm 0 m/S 752 mmHg 93%
    21:00 -2°C° 0 mm 0 m/S 753 mmHg 93%
    22:00 -2°C° 0 mm 0 m/S 753 mmHg 93%
    23:00 -2°C° 0 mm 0 m/S 754 mmHg 93%

    24 Januar, Donnerstag

    Zeit Temperatur Niederschläge Wind Luftdruck Luftfeuchtigkeit
    00:00 -2°C° 0 mm 0 m/S 754 mmHg 93%
    01:00 -2°C° 0 mm 0 m/S 754 mmHg 93%
    02:00 -2°C° 0 mm 0 m/S 755 mmHg 92%
    03:00 -2°C° 0 mm 0 m/S 755 mmHg 92%
    04:00 -1°C° 0 mm 0 m/S 755 mmHg 92%
    05:00 -1°C° 0 mm 0 m/S 756 mmHg 92%
    06:00 -1°C° 0 mm 0 m/S 756 mmHg 91%
    07:00 0°C° 0 mm 1 m/S 757 mmHg 91%
    08:00 0°C° 0 mm 1 m/S 757 mmHg 90%
    09:00 +1°C° 0 mm 1 m/S 757 mmHg 89%
    10:00 +1°C° 0 mm 1 m/S 757 mmHg 89%
    11:00 +1°C° 0 mm 1 m/S 757 mmHg 88%
    12:00 +2°C° 0 mm 1 m/S 758 mmHg 88%
    13:00 +1°C° 0 mm 1 m/S 758 mmHg 89%
    14:00 +1°C° 0 mm 1 m/S 758 mmHg 90%
    15:00 +1°C° 0 mm 1 m/S 758 mmHg 91%
    16:00 +1°C° 0 mm 1 m/S 758 mmHg 92%
    17:00 +1°C° 0 mm 1 m/S 758 mmHg 92%
    18:00 +1°C° 0 mm 1 m/S 758 mmHg 93%
    19:00 +1°C° 0 mm 1 m/S 758 mmHg 93%
    20:00 -1°C° 0 mm 2 m/S 759 mmHg 93%
    21:00 -1°C° 0 mm 2 m/S 759 mmHg 93%
    22:00 -1°C° 0 mm 2 m/S 759 mmHg 91%
    23:00 -1°C° 0 mm 2 m/S 758 mmHg 89%

    25 Januar, Freitag

    Zeit Temperatur Niederschläge Wind Luftdruck Luftfeuchtigkeit
    00:00 -1°C° 0 mm 2 m/S 758 mmHg 88%
    01:00 -1°C° 0.1 mm 2 m/S 758 mmHg 88%
    02:00 -1°C° 0.1 mm 2 m/S 758 mmHg 87%
    03:00 -1°C° 0.1 mm 2 m/S 758 mmHg 87%
    04:00 +1°C° 0.1 mm 2 m/S 757 mmHg 88%
    05:00 +1°C° 0.1 mm 2 m/S 757 mmHg 88%
    06:00 +1°C° 0.1 mm 2 m/S 757 mmHg 89%
    07:00 +1°C° 0 mm 2 m/S 758 mmHg 89%
    08:00 +1°C° 0 mm 2 m/S 758 mmHg 90%
    09:00 +1°C° 0 mm 2 m/S 758 mmHg 90%
    10:00 +1°C° 0 mm 2 m/S 758 mmHg 90%
    11:00 +2°C° 0 mm 2 m/S 758 mmHg 90%
    12:00 +2°C° 0 mm 2 m/S 758 mmHg 90%
    13:00 +2°C° 0 mm 2 m/S 758 mmHg 90%
    14:00 +2°C° 0 mm 2 m/S 758 mmHg 91%
    15:00 +2°C° 0 mm 2 m/S 757 mmHg 92%
    16:00 +2°C° 0 mm 2 m/S 757 mmHg 92%
    17:00 +2°C° 0 mm 2 m/S 758 mmHg 93%
    18:00 +2°C° 0 mm 2 m/S 758 mmHg 94%
    19:00 +2°C° 0.1 mm 2 m/S 758 mmHg 94%
    20:00 +2°C° 0.1 mm 2 m/S 758 mmHg 95%
    21:00 +2°C° 0.1 mm 2 m/S 758 mmHg 95%
    22:00 +2°C° 0.1 mm 2 m/S 758 mmHg 96%
    23:00 +3°C° 0.1 mm 2 m/S 757 mmHg 97%

    26 Januar, Samstag

    Zeit Temperatur Niederschläge Wind Luftdruck Luftfeuchtigkeit
    00:00 +3°C° 0.1 mm 2 m/S 757 mmHg 98%
    01:00 +3°C° 0.1 mm 2 m/S 757 mmHg 98%
    02:00 +3°C° 0.1 mm 2 m/S 756 mmHg 98%
    03:00 +4°C° 0.1 mm 2 m/S 756 mmHg 98%
    04:00 +3°C° 0 mm 3 m/S 755 mmHg 98%
    05:00 +3°C° 0 mm 3 m/S 755 mmHg 97%
    06:00 +3°C° 0 mm 3 m/S 754 mmHg 97%
    07:00 +3°C° 0 mm 3 m/S 754 mmHg 96%
    08:00 +4°C° 0 mm 4 m/S 753 mmHg 95%
    09:00 +4°C° 0 mm 4 m/S 753 mmHg 94%
    10:00 +4°C° 0 mm 4 m/S 752 mmHg 92%
    11:00 +5°C° 0 mm 4 m/S 751 mmHg 91%
    12:00 +5°C° 0 mm 4 m/S 750 mmHg 89%
    13:00 +5°C° 0.1 mm 4 m/S 749 mmHg 87%
    14:00 +5°C° 0.1 mm 4 m/S 748 mmHg 85%
    15:00 +5°C° 0.1 mm 5 m/S 747 mmHg 82%
    16:00 +5°C° 0.2 mm 5 m/S 746 mmHg 82%
    17:00 +5°C° 0.2 mm 5 m/S 745 mmHg 82%
    18:00 +3°C° 0.2 mm 5 m/S 744 mmHg 81%
    19:00 +3°C° 1.3 mm 5 m/S 744 mmHg 84%
    20:00 +3°C° 1.3 mm 5 m/S 743 mmHg 86%
    21:00 +3°C° 1.3 mm 5 m/S 743 mmHg 89%
    22:00 +3°C° 0.3 mm 5 m/S 744 mmHg 85%
    23:00 +2°C° 0.3 mm 5 m/S 744 mmHg 82%
    Mehr zeigen